Hlavní strana
METAR-TAF:

METAR-TAF

Letiště :

Capital City Airport

Frankfort, Kentucky, Spojené státy americké

zeměpisná šířka: 38-11-05N, zeměpisná délka: 084-54-12W, výška: 245 m

Aktuální stav počasí

Zpráva byla vytvořena před 43 minutami, v 01:53 UTC
Západní vítr 5 kt
Teplota 4°C
Vlhkost vzduchu 81%
Tlak 1016 hPa
Viditelnost: 14.5 km
Skoro jasno ve výšce 2700 ft

METAR: KFFT 220153Z AUTO 28005KT 9SM FEW027 04/01 A3001 RMK AO2 SLP164 T00440011

Čas: 22:36 (02:36 UTC)


TAF: chybějící

Stav a předpovědi počasí z více než 4 000 letišť (zprávy METAR a TAF).

Červené a žluté tečky na mapě představují dostupné meteorologické stanice.

Když kurzor umístíte na tečku, zobrazí se název stanice.

Pak kliknutím zobrazíte stav a předpověď počasí.

Chcete-li změnit mapu, kliknutím na zelené tlačítko se znaménkem +mapu přiblížíte, kliknutím na zelené tlačítko se znaménkem – mapu oddálíte a kliknutím na zelené šipky přejdete na sousední mapy.


METAR-TAF: